User: anonymous   Login
Location: Unspecified
(0.0000°N, 0.0000°E)
Time: 06:10:37
(UTC+00:00)
Language:

Kosmos-1333 - Orbit

View from above orbital plane
View from above orbital plane
View from above satellite
View from above satellite

Ground track
Ground track

The orbit data is extracted from the following two-line orbital elements,

1 13033U 82003A   17296.58295118 +.00000067 +00000-0 +55650-4 0  9995
2 13033 082.9424 338.5233 0031654 337.4912 174.9207 13.73200832792654
Epoch (UTC): 23 October 2017 13:59:26
Eccentricity: 0.0031654
inclination: 82.9424°
perigee height: 965 km
apogee height: 1011 km
right ascension of ascending node: 338.5233°
argument of perigee: 337.4912°
revolutions per day: 13.73200832
mean anomaly at epoch: 174.9207°
orbit number at epoch: 79265

The dashed part of the orbit path shows where the satellite is in the earth's shadow,  

DLR